Auburn-Lewiston, ME

3:35 PM EDT on March 23, 2017 (GMT -0400)
Auburn-Lewiston Municipal

Weather History for KLEW - December, 2011

Change the Weather History Date:

Wednesday, December 7, 2011

  Actual Average Record
Temperature  
Mean Temperature 39 °F -  
Max Temperature 41 °F 37 °F 69 °F (1998)
Min Temperature 37 °F 20 °F 1 °F (2007)
Degree Days  
Heating Degree Days 26    
Moisture  
Dew Point 36 °F    
Average Humidity 93    
Maximum Humidity 100    
Minimum Humidity 87    
Precipitation  
Precipitation 0.50 in - - ()
Sea Level Pressure  
Sea Level Pressure 29.80 in    
Wind  
Wind Speed 8 mph (NNE)    
Max Wind Speed 13 mph    
Max Gust Speed 17 mph    
Visibility 9 miles    
Events      
Averages and records for this station are not official NWS values.
T = Trace of Precipitation, MM = Missing Value Source: NWS Daily Summary

Daily Weather History Graph

Daily Weather History Graph

Search for Another Location

Airport or City:

Trip Planner

Search our weather history database for the weather conditions in past years. The results will help you decide how hot, cold, wet, or windy it might be!

Date:

Astronomy

Dec. 07, 2011 Rise Set
Actual Time 7:01 AM EST 4:02 PM EST
Civil Twilight 6:29 AM EST 4:35 PM EST
Nautical Twilight 5:52 AM EST 5:11 PM EST
Astronomical Twilight 5:17 AM EST 5:46 PM EST
Moon 2:04 PM EST (12/7) 4:11 AM EST (12/7)
Length of Visible Light 10h 06m
Length of Day
9h 00m
Waxing Gibbous, 92% of the Moon is Illuminated
Dec 7
Waxing Gibbous
Dec 10
Full
Dec 17
Last Quarter
Dec 24
New
Jan 1
First Quarter

Hourly Weather History & Observations

Time (EST) Temp. Windchill Dew Point Humidity Pressure Visibility Wind Dir Wind Speed Gust Speed Precip Events Conditions
12:15 AM 41.0 °F 34.7 °F 39.2 °F 93% 29.93 in 4.0 mi NNE 10.4 mph - 0.01 in   Overcast
1:15 AM 39.2 °F 33.6 °F 37.4 °F 93% 29.93 in 10.0 mi North 8.1 mph - N/A   Overcast
1:35 AM 39.2 °F 32.0 °F 37.4 °F 93% 29.93 in 10.0 mi NNE 11.5 mph 17.3 mph N/A   Overcast
1:55 AM 39.2 °F 35.0 °F 37.4 °F 93% 29.94 in 10.0 mi NNE 5.8 mph - N/A   Overcast
2:15 AM 39.2 °F 35.0 °F 39.2 °F 100% 29.93 in 10.0 mi North 5.8 mph - N/A   Overcast
2:35 AM 39.2 °F 32.5 °F 37.4 °F 93% 29.91 in 10.0 mi North 10.4 mph - N/A   Overcast
2:55 AM 39.2 °F 33.6 °F 37.4 °F 93% 29.91 in 10.0 mi NNE 8.1 mph - 0.02 in   Overcast
3:15 AM 39.2 °F 32.0 °F 37.4 °F 93% 29.91 in 10.0 mi NNE 11.5 mph - N/A   Overcast
3:35 AM 39.2 °F 34.2 °F 37.4 °F 93% 29.91 in 10.0 mi North 6.9 mph - N/A   Overcast
3:55 AM 39.2 °F 33.6 °F 37.4 °F 93% 29.90 in 10.0 mi NNE 8.1 mph - N/A   Overcast
4:15 AM 39.2 °F 33.0 °F 37.4 °F 93% 29.90 in 10.0 mi NNE 9.2 mph - N/A   Overcast
4:35 AM 39.2 °F 33.6 °F 35.6 °F 87% 29.90 in 10.0 mi NNE 8.1 mph - N/A   Overcast
4:55 AM 39.2 °F 33.6 °F 37.4 °F 93% 29.91 in 10.0 mi North 8.1 mph - N/A   Overcast
5:15 AM 39.2 °F 35.0 °F 37.4 °F 93% 29.90 in 10.0 mi NNE 5.8 mph - N/A   Overcast
5:35 AM 39.2 °F 35.0 °F 35.6 °F 87% 29.89 in 10.0 mi NNE 5.8 mph - N/A   Overcast
5:55 AM 39.2 °F 34.2 °F 37.4 °F 93% 29.90 in 10.0 mi NNE 6.9 mph - N/A   Overcast
6:35 AM 37.4 °F 30.8 °F 35.6 °F 93% 29.90 in 10.0 mi NNE 9.2 mph - N/A   Overcast
6:55 AM 37.4 °F 33.8 °F 35.6 °F 93% 29.92 in 10.0 mi NNE 4.6 mph - N/A   Overcast
7:15 AM 37.4 °F 32.8 °F 37.4 °F 100% 29.90 in 10.0 mi NNE 5.8 mph - N/A   Overcast
7:35 AM 37.4 °F 32.8 °F 37.4 °F 100% 29.91 in 10.0 mi NE 5.8 mph - N/A   Overcast
8:15 AM 37.4 °F 31.4 °F 35.6 °F 93% 29.88 in 10.0 mi NNE 8.1 mph - N/A   Overcast
8:55 AM 37.4 °F 32.1 °F 37.4 °F 100% 29.89 in 10.0 mi North 6.9 mph - N/A   Overcast
9:15 AM 37.4 °F 31.4 °F 37.4 °F 100% 29.90 in 10.0 mi North 8.1 mph - N/A   Overcast
9:35 AM 39.2 °F 35.0 °F 37.4 °F 93% 29.90 in 4.0 mi NNE 5.8 mph - N/A   Overcast
9:55 AM 39.2 °F 35.0 °F 37.4 °F 93% 29.89 in 4.0 mi NNE 5.8 mph - 0.01 in   Overcast
10:15 AM 39.2 °F 33.6 °F 37.4 °F 93% 29.88 in 8.0 mi North 8.1 mph - N/A   Overcast
10:35 AM 39.2 °F 35.0 °F 37.4 °F 93% 29.89 in 5.0 mi North 5.8 mph - 0.01 in   Overcast
10:56 AM 39.2 °F 35.9 °F 37.4 °F 93% 29.86 in 4.0 mi NE 4.6 mph - N/A   Overcast
11:15 AM 39.2 °F 34.2 °F 37.4 °F 93% 29.85 in 10.0 mi NNE 6.9 mph - N/A   Overcast
11:35 AM 39.2 °F 35.0 °F 37.4 °F 93% 29.85 in 10.0 mi North 5.8 mph - N/A   Overcast
11:56 AM 39.2 °F 35.9 °F 37.4 °F 93% 29.84 in 8.0 mi NNE 4.6 mph - N/A   Overcast
12:15 PM 39.2 °F 35.9 °F 37.4 °F 93% 29.84 in 8.0 mi North 4.6 mph - N/A   Overcast
12:35 PM 39.2 °F 35.0 °F 35.6 °F 87% 29.82 in 10.0 mi North 5.8 mph - N/A   Overcast
12:55 PM 39.2 °F 34.2 °F 37.4 °F 93% 29.82 in 10.0 mi NNE 6.9 mph - N/A   Overcast
1:35 PM 39.2 °F 35.0 °F 35.6 °F 87% 29.80 in 10.0 mi NNE 5.8 mph - N/A   Overcast
2:15 PM 37.4 °F 32.8 °F 37.4 °F 100% 29.77 in 10.0 mi NNE 5.8 mph - N/A   Overcast
2:35 PM 37.4 °F 34.9 °F 35.6 °F 93% 29.77 in 10.0 mi NNE 3.5 mph - N/A   Overcast
2:55 PM 39.2 °F 35.0 °F 35.6 °F 87% 29.77 in 10.0 mi North 5.8 mph - N/A   Overcast
3:15 PM 37.4 °F 32.1 °F 35.6 °F 93% 29.78 in 10.0 mi NNE 6.9 mph - N/A   Overcast
3:35 PM 37.4 °F 33.8 °F 35.6 °F 93% 29.78 in 10.0 mi North 4.6 mph - N/A   Overcast
3:55 PM 37.4 °F 32.1 °F 35.6 °F 93% 29.77 in 10.0 mi NNE 6.9 mph - 0.02 in   Overcast
4:15 PM 37.4 °F 31.4 °F 35.6 °F 93% 29.77 in 10.0 mi NNE 8.1 mph - 0.01 in   Overcast
4:55 PM 37.4 °F 32.1 °F 35.6 °F 93% 29.75 in 10.0 mi NNE 6.9 mph - 0.01 in   Overcast
5:15 PM 37.4 °F 33.8 °F 35.6 °F 93% 29.75 in 10.0 mi North 4.6 mph - 0.01 in   Overcast
5:35 PM 37.4 °F 32.8 °F 35.6 °F 93% 29.75 in 9.0 mi North 5.8 mph - 0.01 in   Overcast
5:55 PM 37.4 °F 31.4 °F 35.6 °F 93% 29.72 in 10.0 mi NNE 8.1 mph - 0.02 in   Overcast
6:15 PM 37.4 °F 32.1 °F 35.6 °F 93% 29.73 in 10.0 mi NNE 6.9 mph - 0.01 in   Overcast
6:35 PM 37.4 °F 32.8 °F 35.6 °F 93% 29.72 in 10.0 mi North 5.8 mph - 0.01 in   Overcast
7:15 PM 37.4 °F 32.8 °F 35.6 °F 93% 29.72 in 10.0 mi North 5.8 mph - 0.06 in   Overcast
7:35 PM 37.4 °F 33.8 °F 35.6 °F 93% 29.69 in 10.0 mi NNE 4.6 mph - 0.10 in   Overcast
7:55 PM 37.4 °F 32.8 °F 35.6 °F 93% 29.68 in 10.0 mi North 5.8 mph - 0.12 in   Overcast
8:15 PM 37.4 °F 31.4 °F 35.6 °F 93% 29.65 in 10.0 mi NNE 8.1 mph - 0.01 in   Overcast
8:35 PM 37.4 °F 31.4 °F 35.6 °F 93% 29.66 in 10.0 mi NNE 8.1 mph - 0.02 in   Overcast
8:55 PM 37.4 °F 32.8 °F 35.6 °F 93% 29.66 in 10.0 mi North 5.8 mph - 0.04 in   Overcast
9:15 PM 37.4 °F 32.1 °F 35.6 °F 93% 29.66 in 10.0 mi North 6.9 mph - 0.05 in   Overcast
9:35 PM 37.4 °F 31.4 °F 35.6 °F 93% 29.64 in 10.0 mi North 8.1 mph - 0.08 in   Overcast
9:55 PM 37.4 °F 31.4 °F 35.6 °F 93% 29.62 in 10.0 mi NNE 8.1 mph - 0.11 in   Overcast
10:15 PM 37.4 °F 30.8 °F 35.6 °F 93% 29.61 in 10.0 mi North 9.2 mph - 0.03 in   Overcast
10:35 PM 37.4 °F 31.4 °F 35.6 °F 93% 29.63 in 10.0 mi North 8.1 mph - 0.05 in   Overcast
10:55 PM 37.4 °F 30.8 °F 35.6 °F 93% 29.62 in 8.0 mi North 9.2 mph - 0.08 in   Overcast
11:15 PM 37.4 °F 30.8 °F 35.6 °F 93% 29.59 in 10.0 mi North 9.2 mph - 0.03 in   Overcast
11:35 PM 37.4 °F 30.8 °F 35.6 °F 93% 29.58 in 10.0 mi North 9.2 mph - 0.05 in   Overcast
11:55 PM 37.4 °F 29.3 °F 35.6 °F 93% 29.53 in 10.0 mi NNE 12.7 mph - 0.05 in   Overcast